Location: Santa Cristina
(46.5667°N, 11.7167°E)
Time: 07:13:07
(UTC+00:00)

Meteor 1-27 Rocket - Pass Details

Date: 21 April 2021
Orbit: 830 x 909 km, 81.3° (Epoch: 05 May)

Event Time Altitude Azimuth Distance (km) Brightness Sun altitude
Exits shadow 00:13:48 71° 343° (NNW) 912 3.8 -29.9°
Drops below altitude 10° 00:18:58 10° 9° (N) 2,531 7.1 -29.7°
Sets 00:21:27 0° 11° (N) 3,486 8.1 -29.5°
